Weather History for CWLY - November, 2012

Change the Weather History Date:

Monday, November 5, 2012

  Actual Average Record
Temperature  
Mean Temperature 56 °F -  
Max Temperature 62 °F 45 °F 62 °F (2012)
Min Temperature 50 °F 34 °F 17 °F (2003)
Degree Days  
Heating Degree Days 8    
Growing Degree Days 6 (Base 50)    
Moisture  
Dew Point 40 °F    
Average Humidity 52    
Maximum Humidity 68    
Minimum Humidity 32    
Precipitation  
Precipitation 0.00 in - - ()
Sea Level Pressure  
Sea Level Pressure 30.19 in    
Wind  
Wind Speed 18 mph ()    
Max Wind Speed 25 mph    
Max Gust Speed 37 mph    
Visibility 9.0 miles    
Events      
Averages and records for this station are not official NWS values.
T = Trace of Precipitation, MM = Missing Value Source: Averaged Metar Reports

Daily Weather History Graph

Daily Weather History Graph

Search for Another Location

Airport or City:

Trip Planner

Search our weather history database for the weather conditions in past years. The results will help you decide how hot, cold, wet, or windy it might be!

Date:

Astronomy

Nov. 05, 2012 Rise Set
Actual Time 7:04 AM PST 4:34 PM PST
Civil Twilight 6:29 AM PST 5:09 PM PST
Nautical Twilight 5:50 AM PST 5:48 PM PST
Astronomical Twilight 5:13 AM PST 6:25 PM PST
Moon 10:19 PM PST (11/5) 12:27 PM PST (11/5)
Length of Visible Light 10h 39m
Length of Day
9h 30m
Waning Gibbous, 62% of the Moon is Illuminated
Nov 5
Waning Gibbous
Nov 6
Last Quarter
Nov 13
New
Nov 20
First Quarter
Nov 28
Full

Hourly Weather History & Observations

Time (PST) Temp. Dew Point Humidity Pressure Visibility Wind Dir Wind Speed Gust Speed Precip Events Conditions
12:00 AM 60.8 °F 50.0 °F 68% 30.02 in 9.0 mi SSW 25.3 mph 36.8 mph N/A   Clear
1:00 AM 60 °F 47 °F 53% 30.01 in 9 mi South 21.9 mph - -  
1:00 AM 59.0 °F 48.2 °F 67% 30.01 in 9.0 mi South 20.7 mph 33.4 mph N/A   Clear
2:00 AM 60.8 °F 41.0 °F 48% 30.03 in 9.0 mi SSW 17.3 mph 32.2 mph N/A   Clear
3:00 AM 60.8 °F 39.2 °F 45% 30.05 in 9.0 mi SSW 20.7 mph 28.8 mph N/A   Clear
4:00 AM 60 °F 38 °F 32% 30.09 in 9 mi SSW 20.7 mph - -  
4:00 AM 59.0 °F 37.4 °F 45% 30.09 in 9.0 mi SSW 21.9 mph 31.1 mph N/A   Clear
5:00 AM 57.2 °F 37.4 °F 48% 30.13 in 9.0 mi SSW 19.6 mph 34.5 mph N/A   Clear
6:00 AM 55.4 °F 37.4 °F 51% 30.18 in 9.0 mi SW 18.4 mph 34.5 mph N/A   Clear
7:00 AM 53 °F 37 °F 43% 30.23 in 9 mi SSW 19.6 mph - -  
7:00 AM 53.6 °F 37.4 °F 54% 30.23 in 9.0 mi SSW 18.4 mph 35.7 mph N/A   Clear
8:00 AM 51.8 °F 37.4 °F 58% 30.26 in 9.0 mi SSW 18.4 mph 34.5 mph N/A   Clear
9:00 AM 53.6 °F 37.4 °F 54% 30.26 in 9.0 mi SSW 18.4 mph 33.4 mph N/A   Clear
10:00 AM 55 °F 37 °F 39% 30.27 in 9 mi South 18.4 mph - -  
10:00 AM 55.4 °F 37.4 °F 51% 30.27 in 9.0 mi South 20.7 mph 28.8 mph N/A   Clear
11:00 AM 55.4 °F 39.2 °F 54% 30.27 in 9.0 mi South 24.2 mph 32.2 mph N/A   Clear
12:00 PM 57.2 °F 39.2 °F 51% 30.26 in 9.0 mi South 20.7 mph 36.8 mph N/A   Clear
1:00 PM 56 °F 39 °F 42% 30.26 in 9 mi South 21.9 mph - -  
1:00 PM 57.2 °F 39.2 °F 51% 30.26 in 9.0 mi South 21.9 mph 34.5 mph N/A   Clear
2:00 PM 55.4 °F 39.2 °F 54% 30.25 in 9.0 mi South 21.9 mph 35.7 mph N/A   Clear
3:00 PM 55.4 °F 39.2 °F 54% 30.25 in 9.0 mi SSW 17.3 mph 25.3 mph N/A   Clear
4:00 PM 55 °F 40 °F 45% 30.26 in 9 mi South 15.0 mph - -  
4:00 PM 55.4 °F 39.2 °F 54% 30.26 in 9.0 mi South 15.0 mph 24.2 mph N/A   Clear
5:00 PM 55.4 °F 39.2 °F 54% 30.26 in 9.0 mi South 18.4 mph 25.3 mph N/A   Clear
6:00 PM 53.6 °F 39.2 °F 58% 30.26 in 9.0 mi South 17.3 mph 25.3 mph N/A   Clear
7:00 PM 53 °F 39 °F 47% 30.24 in 9 mi South 19.6 mph - -  
7:00 PM 53.6 °F 39.2 °F 58% 30.24 in 9.0 mi SSW 20.7 mph 32.2 mph N/A   Clear
8:00 PM 51.8 °F 39.2 °F 62% 30.23 in 9.0 mi South 18.4 mph 27.6 mph N/A   Clear
9:00 PM 51.8 °F 39.2 °F 62% 30.22 in 9.0 mi South 19.6 mph 25.3 mph N/A   Clear
10:00 PM 51 °F 39 °F 54% 30.19 in 9 mi South 12.7 mph - -  
11:00 PM 50.0 °F 39.2 °F 66% 30.18 in 9.0 mi SSE 9.2 mph 20.7 mph N/A   Clear